Location: Cosy Dell
(34.2789°N, 117.4537°W)
Time: 21:10:28
(UTC+00:00)

Meteor 2-17 Rocket - Pass Details

Date: 14 July 2020
Orbit: 935 x 956 km, 82.5° (Epoch: 13 August)

Event Time Altitude Azimuth Distance (km) Brightness Sun altitude
Exits shadow 04:46:49 27° 160° (SSE) 1,730 5.3 -18.3°
Maximum altitude 04:50:05 57° 92° (E) 1,096 4.5 -18.8°
Drops below altitude 10° 04:55:59 10° 16° (NNE) 2,651 7.2 -19.7°
Sets 04:58:30 0° 12° (NNE) 3,598 8.0 -20.0°
